Location: Newark
(48.3500°N, 1.3500°E)
Time: 08:23:02
(UTC+00:00)

Envisat - Visible Passes

Search period start: 29 October 2020 00:00
Search period end: 08 November 2020 00:00
Orbit: 764 x 766 km, 98.1° (Epoch: 28 October)

Date Brightness Start Highest point End Pass type
(mag) Time Alt. Az. Time Alt. Az. Time Alt. Az.
29 Oct 3.7 05:45:52 10° NNE 05:50:54 60° E 05:55:55 10° S visible
29 Oct 3.3 17:04:00 10° S 17:09:05 75° WSW 17:14:12 10° NNW visible
29 Oct 6.6 18:48:05 10° W 18:49:00 10° W 18:49:55 10° WNW visible
30 Oct 5.2 05:09:27 10° NNE 05:13:54 29° E 05:18:17 10° SSE visible
30 Oct 5.7 18:07:46 10° SW 18:11:41 22° W 18:15:39 10° NW visible
31 Oct 6.2 04:33:56 10° NE 04:36:40 14° E 04:39:24 10° ESE visible
31 Oct 4.3 17:29:45 10° S 17:34:36 45° W 17:39:29 10° NNW visible
01 Nov 4.2 05:34:33 10° NNE 05:39:29 48° E 05:44:24 10° S visible
01 Nov 6.3 18:35:02 10° WSW 18:37:27 13° W 18:39:53 10° WNW visible
02 Nov 5.5 04:58:19 10° NE 05:02:25 24° E 05:06:29 10° SE visible
02 Nov 5.3 17:55:55 10° SSW 18:00:13 27° W 18:04:32 10° NW visible
03 Nov 6.4 04:23:31 10° ENE 04:25:08 11° E 04:26:45 10° ESE visible
03 Nov 3.2 05:59:52 10° NNE 06:04:59 80° ESE 06:10:04 10° S visible
03 Nov 3.9 17:18:12 10° S 17:23:10 56° W 17:28:12 10° NNW visible
04 Nov 4.6 05:23:17 10° NNE 05:28:04 39° E 05:32:47 10° SSE visible
04 Nov 6.1 18:22:43 10° SW 18:25:55 17° W 18:29:09 10° NW visible
05 Nov 5.8 04:47:17 10° NE 04:50:55 19° E 04:54:32 10° SE visible
05 Nov 4.9 17:44:10 10° SSW 17:48:45 34° W 17:53:21 10° NNW visible
06 Nov 3.5 05:48:31 10° NNE 05:53:36 65° ESE 05:58:38 10° S visible
06 Nov 3.4 17:06:43 10° S 17:11:46 69° WSW 17:16:52 10° NNW visible
07 Nov 5.0 05:12:04 10° NNE 05:16:36 32° E 05:21:06 10° SSE visible
07 Nov 5.7 18:10:39 10° SW 18:14:25 21° W 18:18:12 10° NW visible
